Location: Gleizolles
(44.4833°N, 6.7667°E)
Time: 08:39:20
(UTC+00:00)

CUTE 1.7 + AOD 2 - Pass Details

Date: 12 May 2021
Orbit: 593 x 611 km, 97.6° (Epoch: 21 June)

Event Time Altitude Azimuth Distance (km) Brightness Sun altitude
Rises 03:01:12 0° 28° (NNE) 2,841 ? -10.9°
Reaches altitude 10° 03:03:59 10° 48° (NE) 1,933 ? -10.6°
Maximum altitude 03:06:53 18° 92° (E) 1,474 ? -10.1°
Drops below altitude 10° 03:09:46 10° 136° (SE) 1,923 ? -9.7°
Sets 03:12:30 0° 155° (SSE) 2,819 ? -9.4°
